QPF
0.02 0.01 0.10 0.11 0.04 0.08 0.07 0.01 0.01 0.00 0.00 0.00 0.00 0.00 0.00 0.00 0.00 0.00 0.00 0.00 0.00 0.00 0.00 0.00 0.00 0.00 0.00 0.00 0.00 0.00 0.00 0.00 0.00 0.00 0.00 0.00 0.00 0.00 0.00 0.00 0.00 0.00 0.00 0.00
0.02 0.00 0.00 0.01 0.02 0.05 0.05 0.01 0.00 0.00 0.00 0.00 0.00 0.00 0.00 0.00 0.00 0.00 0.00 0.00 0.00 0.00 0.00 0.00 0.00 0.00 0.00 0.00 0.00 0.00 0.00 0.00 0.00 0.00 0.00 0.00 0.00 0.00 0.00 0.00 0.00 0.00 0.00 0.00
0.00 0.00 0.03 0.02 0.00 0.00 0.00 0.00 0.00 0.00 0.00 0.00 0.00 0.00 0.00 0.00 0.00 0.00 0.00 0.00 0.00 0.00 0.00 0.00 0.00 0.00 0.00 0.00 0.00 0.00 0.00 0.00 0.00 0.00 0.00 0.00 0.00 0.00 0.00 0.00 0.00 0.00 0.00 0.00
0.00 0.02 0.07 0.02 0.00 0.00 0.00 0.00 0.00 0.00 0.00 0.00 0.00 0.00 0.00 0.00 0.00 0.00 0.00 0.00 0.00 0.00 0.00 0.00 0.00 0.00 0.00 0.00 0.00 0.00 0.00 0.00 0.00 0.00 0.00 0.00 0.00 0.00 0.00 0.00 0.00 0.00 0.00 0.00
0.00 0.01 0.04 0.00 0.00 0.00 0.00 0.00 0.00 0.00 0.00 0.00 0.00 0.00 0.00 0.00 0.00 0.00 0.00 0.00 0.00 0.00 0.00 0.00 0.00 0.00 0.00 0.00 0.00 0.00 0.00 0.00 0.00 0.00 0.00 0.00 0.00 0.00 0.00 0.00 0.00 0.00 0.00 0.00
0.00 0.01 0.01 0.00 0.00 0.00 0.00 0.00 0.00 0.00 0.00 0.00 0.00 0.00 0.00 0.00 0.00 0.00 0.00 0.00 0.00 0.00 0.00 0.00 0.00 0.00 0.00 0.00 0.00 0.00 0.00 0.00 0.00 0.00 0.00 0.00 0.00 0.00 0.00 0.00 0.00 0.00 0.00 0.00
0.00 0.00 0.00 0.00 0.00 0.00 0.00 0.00 0.00 0.00 0.00 0.00 0.00 0.00 0.00 0.00 0.00 0.00 0.00 0.00 0.00 0.00 0.00 0.00 0.00 0.00 0.00 0.00 0.00 0.00 0.00 0.00 0.00 0.00 0.00 0.00 0.00 0.00 0.00 0.00 0.00 0.00 0.00 0.00
0.00 0.00 0.00 0.00 0.00 0.00 0.00 0.00 0.00 0.00 0.00 0.00 0.00 0.00 0.00 0.00 0.00 0.00 0.00 0.00 0.00 0.00 0.00 0.00 0.00 0.00 0.00 0.00 0.00 0.00 0.00 0.00 0.00 0.00 0.00 0.00 0.00 0.00 0.00 0.00 0.00 0.00 0.00 0.00
0.01 0.00 0.00 0.00 0.00 0.00 0.00 0.00 0.00 0.00 0.00 0.00 0.00 0.00 0.00 0.00 0.00 0.00 0.00 0.00 0.00 0.00 0.00 0.00 0.00 0.00 0.00 0.00 0.00 0.00 0.00 0.00 0.00 0.00 0.00 0.00 0.00 0.00 0.00 0.00 0.00 0.00 0.00 0.00
0.00 0.00 0.00 0.06 0.15 0.07 0.01 0.00 0.00 0.00 0.00 0.00 0.00 0.00 0.00 0.00 0.00 0.00 0.00 0.00 0.00 0.00 0.00 0.00 0.00 0.00 0.00 0.00 0.00 0.00 0.00 0.00 0.00 0.00 0.00 0.00 0.00 0.00 0.00 0.00 0.00 0.00 0.00 0.00
0.00 0.00 0.00 0.00 0.01 0.05 0.05 0.01 0.00 0.00 0.00 0.00 0.01 0.01 0.01 0.02 0.01 0.00 0.00 0.00 0.00 0.00 0.00 0.00 0.00 0.00 0.00 0.00 0.00 0.00 0.00 0.00 0.00 0.00 0.00 0.00 0.00 0.00 0.00 0.00 0.00 0.00 0.00 0.00
0.00 0.00 0.00 0.00 0.00 0.00 0.00 0.01 0.00 0.00 0.00 0.00 0.01 0.02 0.02 0.01 0.00 0.00 0.00 0.00 0.00 0.00 0.00 0.00 0.00 0.00 0.00 0.00 0.00 0.00 0.00 0.00 0.00 0.00 0.00 0.00 0.00 0.00 0.00 0.00 0.00 0.00 0.00 0.00
0.00 0.00 0.00 0.00 0.00 0.00 0.00 0.00 0.00 0.00 0.00 0.00 0.00 0.01 0.02 0.01 0.00 0.00 0.00 0.00 0.00 0.00 0.00 0.00 0.00 0.00 0.00 0.00 0.00 0.00 0.00 0.00 0.01 0.03 0.02 0.01 0.00 0.00 0.00 0.00 0.00 0.00 0.00 0.00
0.00 0.00 0.00 0.00 0.00 0.00 0.00 0.00 0.01 0.01 0.00 0.00 0.00 0.01 0.02 0.00 0.00 0.00 0.00 0.00 0.00 0.00 0.00 0.00 0.00 0.00 0.00 0.00 0.00 0.00 0.00 0.00 0.00 0.02 0.04 0.04 0.03 0.02 0.00 0.00 0.00 0.00 0.00 0.00
0.00 0.00 0.00 0.00 0.00 0.00 0.00 0.00 0.03 0.03 0.00 0.00 0.00 0.01 0.01 0.00 0.00 0.00 0.00 0.00 0.00 0.00 0.00 0.00 0.00 0.00 0.00 0.00 0.00 0.00 0.00 0.00 0.00 0.00 0.00 0.00 0.00 0.00 0.00 0.00 0.00 0.00 0.00 0.00
0.00 0.00 0.00 0.00 0.00 0.00 0.00 0.01 0.05 0.03 0.00 0.00 0.00 0.00 0.00 0.00 0.00 0.00 0.00 0.00 0.00 0.00 0.00 0.00 0.00 0.00 0.00 0.00 0.00 0.00 0.00 0.00 0.00 0.00 0.00 0.00 0.00 0.01 0.01 0.01 0.00 0.00 0.01 0.01
0.00 0.00 0.00 0.00 0.00 0.00 0.00 0.03 0.05 0.10 0.05 0.01 0.00 0.00 0.00 0.00 0.00 0.00 0.00 0.00 0.00 0.00 0.00 0.00 0.00 0.00 0.00 0.00 0.00 0.00 0.00 0.00 0.00 0.00 0.00 0.00 0.00 0.00 0.00 0.00 0.01 0.01 0.01 0.02
0.00 0.00 0.00 0.00 0.00 0.00 0.01 0.01 0.01 0.02 0.05 0.02 0.00 0.00 0.00 0.00 0.00 0.00 0.00 0.00 0.00 0.00 0.00 0.00 0.00 0.00 0.00 0.00 0.00 0.00 0.00 0.00 0.00 0.00 0.00 0.00 0.00 0.00 0.00 0.01 0.01 0.01 0.00 0.02
0.00 0.00 0.00 0.01 0.01 0.01 0.01 0.01 0.02 0.04 0.06 0.05 0.02 0.03 0.02 0.00 0.00 0.00 0.00 0.00 0.00 0.00 0.00 0.00 0.00 0.00 0.00 0.00 0.00 0.00 0.00 0.00 0.00 0.00 0.00 0.00 0.00 0.00 0.01 0.02 0.01 0.01 0.00 0.01
0.00 0.00 0.00 0.00 0.00 0.01 0.01 0.02 0.02 0.01 0.02 0.07 0.11 0.09 0.04 0.01 0.00 0.00 0.00 0.00 0.00 0.00 0.00 0.00 0.00 0.00 0.00 0.00 0.00 0.00 0.00 0.00 0.00 0.00 0.00 0.00 0.00 0.00 0.00 0.01 0.01 0.01 0.01 0.00
0.00 0.00 0.00 0.00 0.00 0.00 0.01 0.01 0.02 0.02 0.01 0.01 0.01 0.01 0.00 0.00 0.00 0.00 0.00 0.00 0.00 0.00 0.00 0.00 0.00 0.00 0.00 0.00 0.00 0.00 0.00 0.00 0.00 0.00 0.00 0.00 0.00 0.00 0.00 0.00 0.00 0.01 0.01 0.00
0.00 0.00 0.00 0.00 0.00 0.00 0.00 0.00 0.00 0.00 0.00 0.00 0.00 0.00 0.00 0.00 0.00 0.00 0.00 0.00 0.00 0.00 0.00 0.00 0.00 0.00 0.00 0.00 0.00 0.00 0.00 0.00 0.00 0.00 0.00 0.00 0.00 0.00 0.00 0.00 0.00 0.00 0.01 0.01
0.00 0.00 0.00 0.00 0.00 0.00 0.00 0.00 0.00 0.00 0.00 0.00 0.00 0.00 0.00 0.00 0.00 0.00 0.00 0.00 0.00 0.00 0.00 0.00 0.00 0.00 0.00 0.00 0.00 0.00 0.00 0.00 0.00 0.00 0.00 0.00 0.00 0.00 0.00 0.00 0.00 0.00 0.00 0.00
0.00 0.00 0.00 0.00 0.00 0.00 0.00 0.00 0.00 0.00 0.00 0.00 0.00 0.00 0.00 0.00 0.00 0.00 0.00 0.00 0.00 0.00 0.00 0.00 0.00 0.00 0.00 0.00 0.00 0.00 0.00 0.00 0.00 0.00 0.00 0.00 0.00 0.00 0.00 0.00 0.00 0.00 0.00 0.00
0.00 0.00 0.00 0.00 0.01 0.01 0.02 0.02 0.02 0.01 0.01 0.00 0.00 0.00 0.00 0.00 0.00 0.00 0.00 0.00 0.00 0.00 0.00 0.00 0.00 0.00 0.00 0.00 0.00 0.00 0.00 0.00 0.00 0.00 0.00 0.00 0.00 0.00 0.00 0.00 0.00 0.00 0.00 0.00
0.00 0.00 0.00 0.00 0.00 0.00 0.02 0.04 0.05 0.07 0.04 0.01 0.00 0.00 0.00 0.00 0.00 0.00 0.00 0.00 0.00 0.00 0.00 0.00 0.00 0.00 0.00 0.00 0.00 0.00 0.00 0.00 0.00 0.00 0.00 0.00 0.00 0.00 0.00 0.00 0.00 0.00 0.00 0.00
0.00 0.00 0.00 0.00 0.00 0.00 0.00 0.00 0.01 0.01 0.00 0.00 0.00 0.00 0.00 0.00 0.00 0.00 0.00 0.00 0.00 0.00 0.00 0.00 0.00 0.00 0.00 0.00 0.00 0.00 0.00 0.00 0.00 0.00 0.00 0.00 0.00 0.00 0.00 0.00 0.00 0.00 0.00 0.00
MSLP
1016.69 1015.82 1015.48 1014.86 1014.21 1014.32 1014.10 1014.44 1014.41 1013.77 1013.21 1012.16 1011.94 1011.81 1011.53 1011.55 1011.81 1012.18 1012.38 1012.67 1012.78 1012.94 1013.20 1013.43 1013.67 1013.87 1014.09 1014.40 1014.87 1015.22 1015.77 1016.44 1016.98 1017.35 1017.64 1017.73 1018.31 1019.10 1019.87 1020.46 1020.63 1020.66 1020.62 1020.82
1016.40 1015.46 1015.11 1014.56 1013.89 1013.96 1013.93 1013.89 1013.74 1013.57 1012.27 1011.68 1011.38 1011.51 1011.51 1011.65 1011.76 1012.11 1012.29 1012.39 1012.26 1012.47 1012.83 1013.12 1013.34 1013.53 1013.83 1014.18 1014.63 1015.05 1015.63 1016.34 1016.85 1017.32 1017.77 1018.23 1018.87 1019.41 1020.09 1020.57 1020.32 1020.70 1021.19 1021.24
1017.23 1015.78 1015.02 1014.23 1012.89 1012.75 1012.91 1012.87 1012.75 1012.46 1010.90 1011.55 1011.42 1011.33 1011.42 1011.61 1011.66 1011.70 1011.85 1011.88 1011.98 1012.21 1012.34 1012.52 1012.65 1012.93 1013.31 1013.70 1014.40 1014.95 1015.55 1016.34 1016.89 1017.37 1017.95 1018.40 1018.90 1019.50 1020.06 1020.45 1020.93 1021.20 1021.13 1021.28
1017.95 1016.17 1014.70 1012.66 1011.45 1011.28 1011.51 1011.46 1011.48 1011.11 1010.83 1010.90 1010.78 1010.71 1010.81 1010.95 1010.98 1011.21 1011.53 1011.73 1011.87 1011.90 1011.87 1011.81 1011.99 1012.49 1012.92 1013.51 1014.23 1014.95 1015.53 1016.20 1016.84 1017.45 1018.02 1018.48 1019.03 1019.67 1020.28 1020.72 1020.90 1020.94 1020.98 1021.02
1018.27 1016.47 1014.55 1012.34 1011.64 1011.41 1011.43 1011.08 1010.81 1010.61 1010.25 1010.33 1010.58 1010.77 1011.04 1011.09 1011.08 1011.35 1011.62 1011.82 1011.81 1011.72 1011.59 1011.36 1011.46 1011.75 1012.58 1013.46 1014.10 1014.87 1015.39 1015.88 1016.57 1017.15 1017.78 1018.47 1019.17 1019.90 1020.39 1020.67 1020.82 1020.90 1020.94 1021.18
1018.17 1016.75 1014.68 1013.09 1012.07 1011.34 1011.11 1011.22 1010.75 1010.39 1010.03 1010.19 1010.49 1011.15 1011.09 1011.19 1011.34 1011.59 1011.79 1011.75 1011.63 1011.61 1011.37 1011.09 1010.84 1011.29 1012.16 1013.09 1013.88 1014.51 1014.89 1015.38 1016.05 1016.78 1017.60 1018.42 1019.08 1019.74 1020.13 1020.44 1020.71 1021.00 1020.99 1021.05
1018.23 1016.77 1014.99 1014.13 1012.89 1011.87 1012.36 1013.10 1011.45 1010.71 1010.34 1010.37 1010.66 1010.99 1010.99 1011.15 1011.40 1011.64 1011.79 1011.77 1011.65 1011.45 1011.26 1010.97 1010.83 1011.10 1011.82 1012.70 1013.26 1013.76 1014.57 1015.18 1015.85 1016.58 1017.36 1018.06 1018.96 1019.51 1019.79 1020.18 1020.49 1020.86 1020.82 1020.85
1017.62 1016.90 1015.74 1014.52 1013.38 1013.88 1014.44 1012.92 1011.92 1011.11 1010.74 1010.52 1010.53 1010.62 1010.79 1011.12 1011.47 1011.83 1012.09 1012.07 1011.96 1011.72 1011.59 1011.22 1010.98 1011.16 1011.80 1012.38 1012.91 1013.73 1014.44 1015.11 1015.83 1016.55 1017.26 1018.04 1018.71 1019.34 1019.68 1019.94 1020.35 1020.61 1020.76 1020.80
1017.09 1016.03 1015.31 1015.01 1015.05 1014.89 1014.57 1014.01 1013.18 1012.20 1011.22 1010.69 1010.55 1010.66 1010.88 1011.36 1011.69 1012.06 1012.30 1012.36 1012.31 1012.16 1012.14 1011.87 1011.52 1011.57 1012.14 1012.65 1013.13 1013.84 1014.65 1015.36 1015.94 1016.60 1017.32 1017.97 1018.67 1019.18 1019.57 1019.82 1020.11 1020.29 1020.47 1020.44
1017.00 1016.34 1015.68 1015.52 1015.16 1015.12 1015.06 1014.71 1013.79 1012.95 1012.08 1011.15 1010.99 1010.91 1011.17 1011.58 1012.00 1012.35 1012.53 1012.61 1012.57 1012.53 1012.69 1012.63 1012.28 1012.14 1012.44 1013.01 1013.38 1013.96 1014.74 1015.58 1016.16 1016.74 1017.49 1018.06 1018.53 1018.87 1019.14 1019.44 1019.73 1019.87 1019.99 1019.99
1017.24 1016.44 1015.82 1015.72 1015.41 1015.18 1014.91 1014.60 1013.97 1013.19 1012.66 1011.78 1011.32 1011.38 1011.49 1011.84 1012.24 1012.57 1012.82 1012.93 1012.89 1012.97 1013.15 1013.20 1013.06 1013.10 1013.29 1013.56 1013.86 1014.47 1015.14 1015.79 1016.35 1016.82 1017.42 1017.99 1018.25 1018.41 1018.65 1018.81 1019.03 1019.22 1019.29 1019.43
1017.21 1016.94 1016.66 1016.14 1015.64 1015.12 1014.90 1014.40 1014.06 1013.72 1012.96 1012.15 1011.56 1011.69 1012.08 1012.35 1012.56 1012.84 1013.08 1013.27 1013.33 1013.44 1013.56 1013.73 1013.76 1013.95 1014.15 1014.27 1014.47 1014.89 1015.47 1015.93 1016.31 1016.79 1017.29 1017.77 1018.10 1018.33 1018.33 1018.42 1018.60 1018.65 1018.72 1018.87
1017.27 1017.03 1016.81 1016.23 1015.75 1015.13 1014.70 1014.30 1013.75 1013.64 1013.38 1012.81 1012.10 1012.05 1012.50 1012.80 1013.06 1013.31 1013.43 1013.59 1013.74 1013.89 1013.99 1014.12 1014.26 1014.38 1014.42 1014.55 1014.72 1015.11 1015.48 1015.84 1016.21 1016.58 1017.01 1017.43 1017.82 1018.15 1018.13 1018.03 1018.13 1018.21 1018.21 1018.23
1017.09 1016.94 1016.56 1015.99 1015.68 1015.16 1014.73 1014.06 1013.73 1013.40 1013.32 1013.06 1012.78 1012.71 1012.78 1013.17 1013.54 1013.83 1013.98 1014.09 1014.16 1014.28 1014.43 1014.60 1014.79 1015.00 1014.89 1014.82 1014.96 1015.21 1015.46 1015.66 1015.98 1016.32 1016.63 1017.02 1017.28 1017.59 1017.72 1017.95 1017.83 1017.72 1017.66 1017.71
1016.78 1016.75 1016.67 1016.27 1015.56 1014.93 1014.45 1013.98 1013.61 1013.49 1013.46 1013.28 1013.18 1013.24 1013.46 1013.79 1014.07 1014.31 1014.50 1014.59 1014.79 1015.02 1015.23 1015.35 1015.47 1015.62 1015.46 1015.27 1015.31 1015.43 1015.57 1015.71 1015.89 1016.11 1016.41 1016.72 1017.01 1017.24 1017.38 1017.50 1017.49 1017.43 1017.44 1017.36
1016.62 1016.29 1016.15 1016.01 1015.51 1014.96 1014.65 1014.03 1013.77 1013.34 1013.32 1013.47 1013.60 1013.77 1013.98 1014.36 1014.64 1014.84 1015.03 1015.10 1015.27 1015.70 1015.92 1015.98 1016.05 1016.07 1015.86 1015.69 1015.60 1015.66 1015.67 1015.56 1015.66 1015.93 1016.19 1016.43 1016.66 1016.86 1017.00 1016.99 1017.07 1017.03 1016.96 1016.91
1016.40 1016.08 1015.91 1015.76 1015.58 1015.01 1014.63 1014.17 1013.87 1013.51 1013.50 1013.83 1014.13 1014.26 1014.50 1014.81 1015.08 1015.42 1015.62 1015.71 1015.92 1016.22 1016.39 1016.42 1016.42 1016.26 1016.14 1016.00 1015.77 1015.62 1015.58 1015.48 1015.41 1015.65 1015.89 1016.07 1016.24 1016.40 1016.47 1016.54 1016.56 1016.51 1016.39 1016.35
1016.25 1016.05 1015.90 1015.94 1015.59 1015.20 1014.64 1014.30 1014.23 1014.16 1014.27 1014.43 1014.65 1014.73 1014.89 1015.31 1015.63 1015.86 1016.03 1016.26 1016.52 1016.69 1016.76 1016.75 1016.57 1016.41 1016.37 1016.18 1015.98 1015.84 1015.69 1015.57 1015.53 1015.61 1015.69 1015.77 1015.83 1015.92 1016.01 1016.04 1016.01 1015.96 1015.84 1015.81
1015.97 1015.85 1015.86 1015.85 1015.73 1015.45 1015.26 1015.20 1015.08 1014.95 1014.90 1014.81 1014.95 1015.21 1015.46 1015.77 1015.95 1016.15 1016.31 1016.58 1016.78 1016.94 1017.04 1016.89 1016.76 1016.69 1016.56 1016.29 1016.11 1016.09 1015.95 1015.80 1015.68 1015.67 1015.67 1015.66 1015.64 1015.65 1015.69 1015.70 1015.67 1015.60 1015.51 1015.42
1015.87 1015.87 1015.88 1015.95 1015.94 1015.77 1015.65 1015.73 1015.79 1015.64 1015.62 1015.46 1015.50 1015.75 1015.99 1016.20 1016.31 1016.45 1016.61 1016.81 1016.90 1016.92 1016.94 1016.93 1016.95 1016.90 1016.76 1016.55 1016.35 1016.27 1016.20 1016.13 1016.07 1016.00 1015.92 1015.87 1015.83 1015.74 1015.65 1015.56 1015.49 1015.36 1015.26 1015.14
1016.08 1016.05 1016.03 1016.10 1016.11 1016.10 1016.14 1016.18 1016.26 1016.39 1016.39 1016.32 1016.16 1016.15 1016.30 1016.42 1016.54 1016.56 1016.82 1016.98 1017.02 1016.88 1016.90 1016.97 1017.03 1017.01 1016.90 1016.81 1016.71 1016.60 1016.50 1016.54 1016.53 1016.53 1016.49 1016.43 1016.29 1016.17 1016.02 1015.87 1015.70 1015.54 1015.32 1015.15
1016.43 1016.35 1016.32 1016.44 1016.53 1016.62 1016.50 1016.51 1016.57 1016.68 1016.73 1016.65 1016.62 1016.52 1016.57 1016.68 1016.76 1016.82 1016.83 1016.82 1016.94 1016.90 1017.00 1017.07 1017.09 1016.98 1016.95 1017.04 1017.06 1017.04 1017.05 1017.09 1017.11 1017.05 1017.05 1016.99 1016.84 1016.69 1016.52 1016.26 1015.97 1015.70 1015.38 1015.10
1016.66 1016.85 1016.79 1016.69 1016.75 1016.79 1016.60 1016.51 1016.66 1016.79 1016.82 1016.69 1016.61 1016.65 1016.71 1016.72 1016.79 1016.88 1016.87 1016.80 1016.88 1016.91 1017.05 1017.07 1016.98 1016.89 1016.97 1017.17 1017.29 1017.35 1017.39 1017.46 1017.52 1017.51 1017.50 1017.50 1017.40 1017.27 1017.01 1016.71 1016.34 1016.03 1015.79 1015.50
1016.75 1016.87 1016.94 1016.90 1016.90 1016.71 1016.73 1016.67 1016.59 1016.65 1016.69 1016.64 1016.64 1016.66 1016.74 1016.91 1016.87 1016.76 1016.73 1016.65 1016.74 1016.81 1016.93 1016.91 1016.83 1016.79 1016.99 1017.21 1017.35 1017.45 1017.53 1017.60 1017.63 1017.57 1017.43 1017.20 1017.31 1017.18 1016.99 1016.70 1016.43 1016.08 1015.84 1015.55
1016.56 1016.62 1016.63 1016.48 1016.49 1016.56 1016.45 1016.48 1016.66 1016.70 1016.61 1016.43 1016.32 1016.37 1016.45 1016.44 1016.59 1016.45 1016.60 1016.67 1016.64 1016.69 1016.82 1016.73 1016.67 1016.71 1016.94 1017.15 1017.28 1017.35 1017.43 1017.47 1017.43 1017.40 1017.34 1017.31 1017.21 1017.13 1016.88 1016.64 1016.44 1016.14 1015.74 1015.51
1016.58 1016.60 1016.55 1016.51 1016.33 1016.18 1016.20 1016.25 1016.25 1016.16 1016.30 1016.20 1015.99 1015.89 1015.94 1016.01 1016.07 1016.16 1016.32 1016.38 1016.45 1016.45 1016.52 1016.58 1016.58 1016.64 1016.78 1016.91 1017.03 1017.14 1017.23 1017.30 1017.30 1017.25 1017.13 1017.14 1017.05 1016.92 1016.71 1016.47 1016.25 1015.95 1015.64 1015.31
1016.79 1016.74 1016.62 1016.60 1016.41 1016.36 1016.24 1016.13 1016.04 1015.91 1015.75 1015.67 1015.47 1015.33 1015.40 1015.61 1015.75 1015.75 1015.80 1015.95 1016.01 1016.09 1016.19 1016.27 1016.33 1016.35 1016.46 1016.60 1016.77 1016.93 1016.99 1017.05 1017.06 1016.98 1016.94 1016.86 1016.72 1016.60 1016.42 1016.22 1015.97 1015.65 1015.31 1015.01
Thickness
5465 5475 5471 5480 5493 5496 5500 5504 5502 5520 5520 5538 5538 5541 5549 5553 5554 5554 5555 5556 5558 5562 5561 5560 5563 5566 5566 5565 5562 5561 5559 5556 5553 5551 5549 5548 5543 5537 5531 5527 5525 5523 5526 5525
5447 5473 5475 5482 5490 5493 5496 5502 5510 5505 5521 5537 5541 5539 5540 5544 5545 5545 5546 5550 5556 5558 5557 5556 5555 5559 5559 5559 5557 5555 5551 5548 5545 5543 5540 5536 5530 5526 5521 5517 5520 5516 5513 5514
5423 5465 5472 5472 5487 5495 5496 5502 5506 5507 5535 5530 5528 5534 5536 5536 5536 5541 5543 5546 5550 5553 5554 5552 5553 5555 5555 5553 5549 5547 5543 5539 5537 5534 5530 5526 5522 5518 5514 5511 5507 5504 5506 5504
5404 5459 5477 5499 5506 5508 5509 5514 5516 5521 5524 5525 5531 5535 5534 5536 5539 5540 5540 5541 5544 5546 5549 5550 5550 5550 5548 5545 5542 5538 5535 5531 5527 5524 5520 5517 5514 5509 5504 5500 5499 5498 5497 5495
5424 5451 5477 5503 5504 5498 5497 5508 5513 5517 5525 5525 5525 5528 5527 5528 5533 5534 5533 5532 5534 5537 5542 5547 5547 5547 5542 5536 5533 5529 5527 5524 5519 5516 5513 5509 5505 5499 5495 5492 5491 5489 5487 5484
5434 5454 5472 5491 5489 5497 5504 5498 5510 5510 5512 5518 5515 5508 5513 5521 5522 5522 5521 5524 5527 5530 5535 5540 5544 5542 5537 5531 5527 5524 5522 5519 5514 5510 5507 5501 5496 5491 5488 5485 5482 5479 5477 5475
5408 5417 5460 5465 5475 5491 5491 5479 5497 5509 5511 5511 5508 5506 5511 5514 5514 5513 5514 5516 5520 5524 5528 5533 5535 5536 5532 5525 5523 5521 5514 5511 5508 5503 5498 5493 5487 5483 5481 5478 5475 5471 5470 5468
5436 5429 5444 5455 5472 5465 5457 5470 5489 5500 5503 5506 5506 5509 5509 5507 5504 5502 5502 5505 5509 5513 5515 5520 5526 5528 5522 5519 5516 5510 5506 5502 5497 5493 5488 5483 5479 5474 5472 5470 5466 5463 5461 5459
5443 5444 5451 5448 5447 5451 5453 5459 5465 5475 5493 5499 5502 5503 5503 5497 5496 5494 5493 5496 5498 5501 5504 5506 5512 5514 5509 5506 5505 5500 5496 5491 5487 5482 5478 5474 5469 5466 5463 5461 5458 5456 5454 5453
5439 5444 5449 5436 5439 5438 5440 5443 5452 5461 5469 5488 5492 5493 5490 5486 5484 5484 5485 5487 5489 5492 5492 5493 5498 5501 5500 5497 5494 5492 5486 5480 5476 5473 5468 5464 5461 5459 5457 5454 5452 5450 5449 5448
5422 5429 5432 5430 5432 5434 5435 5438 5444 5452 5459 5469 5481 5480 5479 5477 5477 5477 5476 5477 5479 5480 5480 5481 5484 5484 5485 5484 5483 5479 5475 5470 5466 5464 5460 5455 5454 5453 5451 5450 5448 5446 5445 5443
5417 5417 5414 5414 5416 5423 5426 5432 5436 5440 5449 5458 5471 5471 5468 5467 5467 5468 5469 5468 5468 5468 5470 5470 5470 5470 5469 5470 5470 5467 5463 5460 5459 5457 5452 5449 5446 5444 5445 5445 5443 5442 5441 5438
5414 5411 5405 5404 5402 5405 5411 5418 5431 5436 5441 5447 5458 5461 5460 5458 5456 5459 5457 5458 5459 5460 5461 5461 5461 5462 5462 5462 5461 5460 5457 5455 5452 5449 5445 5443 5439 5437 5438 5439 5438 5437 5437 5435
5412 5406 5401 5400 5393 5391 5393 5408 5422 5433 5437 5442 5448 5451 5453 5451 5448 5448 5448 5449 5450 5450 5450 5450 5449 5448 5450 5452 5452 5451 5449 5448 5445 5443 5441 5438 5436 5433 5432 5430 5431 5431 5432 5431
5412 5403 5395 5389 5388 5391 5388 5403 5419 5429 5431 5437 5439 5443 5443 5441 5439 5438 5438 5440 5439 5439 5438 5438 5437 5436 5438 5440 5441 5440 5439 5438 5437 5435 5433 5431 5429 5427 5426 5424 5424 5425 5424 5424
5412 5407 5395 5391 5391 5393 5393 5410 5418 5429 5433 5432 5432 5433 5432 5430 5429 5428 5428 5430 5431 5427 5426 5425 5425 5425 5427 5428 5430 5429 5429 5431 5430 5427 5426 5424 5422 5421 5419 5419 5418 5418 5418 5417
5410 5407 5398 5393 5395 5402 5406 5414 5420 5426 5429 5427 5425 5425 5424 5421 5420 5419 5419 5419 5418 5415 5415 5414 5414 5415 5416 5417 5419 5421 5421 5422 5423 5421 5419 5418 5417 5415 5414 5414 5413 5413 5414 5413
5410 5406 5403 5396 5400 5403 5410 5413 5414 5418 5418 5419 5419 5418 5417 5414 5412 5410 5409 5407 5405 5403 5402 5403 5404 5406 5406 5407 5409 5410 5411 5411 5411 5411 5411 5410 5410 5409 5408 5408 5408 5408 5408 5406
5411 5407 5402 5399 5397 5400 5403 5403 5405 5407 5408 5411 5412 5409 5406 5404 5403 5402 5400 5398 5396 5395 5392 5392 5393 5393 5394 5397 5399 5399 5399 5400 5402 5402 5402 5403 5403 5402 5401 5400 5399 5399 5398 5397
5409 5404 5399 5395 5393 5393 5394 5393 5394 5396 5396 5398 5399 5397 5395 5393 5394 5393 5391 5389 5387 5386 5385 5384 5383 5382 5383 5385 5387 5388 5389 5389 5390 5391 5391 5392 5391 5391 5391 5391 5390 5389 5388 5387
5402 5398 5395 5392 5389 5387 5386 5385 5385 5384 5384 5385 5387 5387 5386 5385 5384 5383 5380 5380 5378 5377 5376 5375 5374 5374 5374 5374 5375 5376 5377 5377 5378 5377 5377 5378 5378 5378 5378 5377 5377 5376 5375 5374
5395 5393 5390 5385 5381 5378 5379 5377 5376 5375 5374 5374 5375 5376 5375 5374 5372 5371 5371 5372 5369 5369 5367 5366 5365 5366 5366 5365 5363 5364 5363 5363 5364 5365 5365 5366 5366 5366 5365 5365 5365 5364 5363 5363
5387 5380 5378 5376 5372 5370 5371 5370 5369 5367 5367 5368 5368 5367 5366 5365 5364 5363 5363 5362 5361 5361 5359 5358 5359 5360 5359 5355 5354 5353 5352 5352 5351 5351 5350 5348 5348 5347 5346 5347 5349 5349 5349 5348
5381 5376 5371 5367 5364 5364 5364 5365 5362 5361 5359 5360 5360 5359 5357 5355 5355 5355 5355 5356 5355 5355 5353 5354 5354 5355 5353 5349 5347 5345 5344 5343 5342 5340 5341 5344 5339 5339 5339 5339 5340 5340 5339 5339
5376 5371 5366 5363 5361 5358 5357 5354 5351 5351 5352 5353 5354 5353 5352 5351 5351 5352 5350 5349 5350 5350 5348 5349 5350 5350 5346 5344 5342 5341 5340 5338 5336 5336 5336 5334 5333 5332 5332 5332 5331 5331 5330 5330
5366 5363 5360 5356 5354 5352 5351 5348 5348 5348 5346 5345 5348 5348 5347 5347 5347 5346 5344 5345 5344 5345 5344 5343 5343 5342 5341 5339 5338 5336 5334 5332 5331 5330 5330 5327 5325 5324 5324 5323 5322 5321 5321 5319
5350 5353 5345 5343 5342 5340 5339 5340 5339 5341 5342 5342 5344 5344 5342 5340 5339 5340 5340 5339 5339 5339 5337 5336 5336 5336 5334 5332 5330 5328 5326 5324 5324 5323 5321 5319 5318 5316 5315 5314 5312 5311 5310 5308